Location: Newark
(39.0622°N, 106.5590°E)
Time: 20:53:16
(UTC+00:00)

Courier 1B - Pass Details

Date: 02 February 2020
Orbit: 962 x 1209 km, 28.3° (Epoch: 22 February)

Event Time Altitude Azimuth Distance (km) Brightness Sun altitude
Rises 15:56:49 0° 226° (SW) 3,631 - -63.0°
Reaches altitude 10° 15:59:58 10° 212° (SSW) 2,698 - -63.3°
Maximum altitude 16:04:55 23° 163° (SSE) 1,956 - -63.9°
Drops below altitude 10° 16:10:00 10° 113° (ESE) 2,789 - -64.5°
Sets 16:13:20 0° 100° (E) 3,783 - -64.8°
